星链-30265 (STARLINK-30265 )

导读 | 豆包AI

STARLINK-30265是美国太空探索技术公司SpaceX星链互联网卫星星座的一员,于2023年8月17日发射入轨。星链计划旨在构建全球卫星互联网,该卫星承担低轨宽带通信服务,面向全球提供覆盖偏远地区的高速互联网接入,目前已在轨道运行超两年,是星链规模持续扩张过程中的组网卫星。

基本信息
目录编号:
57646
目录名称:
STARLINK-30265
国际标识:
2023-122Q
轨道中心:
EARTH
卫星名称:
星链-30265
卫星全名:
星链-30265 (STARLINK-30265 )
卫星状态:
在轨 (已飞行987 天)
发射日期:
2023-08-17 UTC
国别 :
美国 (US)
星等 :
--
轨道信息
数据来源 国际轨道数据
星历时间: 2026-04-30T10:23:12+0800
13小时前
查看轨道信息
半长轴: 6861.22km
偏心率: 0.0001102
轨道倾角: 43.005°
近地点辐角 241.932°
升交点赤经 161.800°
平近点角 118.142°
近地点: 482.326km
远地点: 483.84km
周期: 94.267分钟
每日圈数: 15.275687
详细信息
固有亮度:
5
最大亮度:
0.3
卫星平台:
Starlink v2.0 mini
覆盖范围:
全球
运营商:
太空探索技术公司
运营商所在国:
美国
制造商(研发单位):
太空探索技术公司
制造商所在国:
美国
使用方式:
暂无
卫星简介
星链(Starlink)计划是由太空探索技术公司(SpaceX)提出的一个巨型低轨卫星互联网星座项目,计划在2019年至2024年间在太空搭建由约1.2万颗卫星组成的“星链”网络,其中1584颗将部署在地球上空550千米处的近地轨道,并从2020年开始工作。该卫星仍在工作。
2D轨道图
3D轨道图
轨道高度分析图
轨道倾角分析图
轨道综合分析图
查看轨道综合分析图